TIME,DELAY(SENSOR),PRES,OXYGEN,RAWTEMP,T(OPTODE),TCPHASE,FLUOR,BETA(BETA700),BETA(BETA412),BETA(BETA440),CDOM,C(CSC),ED(ED412.40),ED(ED444.00),ED(ED489.70),ED(ED554.30),LU(LU411.80),LU(LU443.40),LU(LU489.60),LU(LU554.10),COMP,TILTX,TILTY,CHECK
1375757735,5806,862.3900146484375000,45.4721603393554700,660.9848022460938000,4.5955448150634770,54.1976318359375000,53,99,85,79,80,15331,2147755117,2147424731,2148011218,2147876086,2147641453,2147054025,2148256612,2147198683,499,4,13,38011
1375761331,5809,943.7199707031250000,48.4738616943359400,669.8643188476562000,4.3026790618896480,53.8772583007812500,53,98,82,78,78,15331,2147754834,2147424457,2148012617,2147874358,2147640338,2147050724,2148258368,2147201554,222,4,13,65244
1375764931,5806,963.8200073242188000,48.8007507324218750,669.9533081054688000,4.2997398376464840,53.8348617553710940,52,100,90,79,79,15330,2147756544,2147425782,2148011757,2147873408,2147642432,2147051035,2148260781,2147199597,168,4,13,31098
1375768531,5811,982.5700073242188000,51.4140396118164060,673.8156127929688000,4.1720700263977050,53.5265617370605500,52,98,85,79,80,15333,2147754377,2147425124,2148011785,2147870500,2147643428,2147057316,2148261421,2147199835,328,4,13,48416
1375772131,5810,994.7000122070312000,51.8914604187011700,674.8112182617188000,4.1391329765319820,53.4747200012207000,52,97,87,80,79,15331,2147759296,2147425462,2148012224,2147874715,2147643227,2147050587,2148260626,2147199698,3512,4,13,46613
1375775731,5810,992.4500122070312000,52.0674781799316400,675.0493164062500000,4.1312541961669920,53.4531517028808600,51,96,86,78,78,15332,2147756928,2147427611,2148011172,2147873645,2147641984,2147049792,2148260251,2147199707,3514,4,13,18464
1375779331,5808,987.0300292968750000,51.6076507568359400,675.6036987304688000,4.1129069328308105,53.5180282592773440,53,98,84,78,80,15329,2147757650,2147425865,2148011986,2147872969,2147642925,2147053348,2148258889,2147200347,3496,4,13,26123
1375782931,5808,990.2199707031250000,51.2375297546386700,675.7150878906250000,4.1092209815979000,53.5718612670898440,52,98,86,78,78,15325,2147757787,2147426459,2148011081,2147876681,2147642093,2147055478,2148259364,2147198628,3044,4,13,13097
1375786531,5809,995.8599853515625000,50.5603103637695300,675.7921752929688000,4.1066670417785645,53.6640281677246100,53,99,87,80,79,15311,2147756736,2147424512,2148011638,2147875355,2147639990,2147056155,2148259858,2147201718,144,4,13,20823
1375790131,5811,993.7700195312500000,50.7479591369628900,675.8361816406250000,4.1052131652832030,53.6423416137695300,53,99,85,78,79,15323,2147759917,2147422811,2148012004,2147871881,2147640109,2147054738,2148262445,2147200036,3526,4,13,60985
1375793731,5809,1002.5599975585938000,50.9322395324707000,675.5958862304688000,4.1131649017333980,53.6098518371582000,52,97,86,77,79,15325,2147756324,2147426212,2148013622,2147876205,2147641709,2147053595,2148260644,2147198153,3077,4,13,39240
1375797331,5809,995.6099853515625000,50.8555297851562500,676.3787841796875000,4.0872502326965330,53.6315498352050800,52,97,88,81,79,15326,2147756105,2147425846,2148008749,2147873682,2147641206,2147053869,2148264100,2147199497,48,4,13,16775
1375800931,5812,1000.0999755859375000,50.3906288146972660,676.0927124023438000,4.0967240333557130,53.6900291442871100,52,98,87,79,79,15328,2147756461,2147428022,2148013120,2147872731,2147637540,2147055277,2148260763,2147201600,99,4,13,61296
1375804531,5809,1001.2000122070312000,50.6383590698242200,675.4791259765625000,4.1170330047607420,53.6502189636230500,51,98,86,78,80,15327,2147755309,2147425060,2148012041,2147872694,2147640521,2147051620,2148257718,2147198262,3107,4,13,44760
1375808131,5807,1001.8099975585938000,50.3167495727539060,675.8704833984375000,4.1040778160095215,53.7006912231445300,52,99,85,77,78,15317,2147756800,2147426989,2148011885,2147873462,2147640237,2147050523,2148257133,2147198345,3484,4,13,26651
1375811731,5808,999.3400268554688000,50.3483505249023440,676.1262817382812000,4.0956101417541500,53.7021293640136700,52,98,84,77,79,15322,2147757686,2147427373,2148009225,2147877238,2147643602,2147054317,2148263378,2147197238,3274,4,13,32469
1375815331,5811,999.3400268554688000,50.9948005676269500,676.2230834960938000,4.0924048423767090,53.6154899597168000,52,98,84,78,79,15319,2147758070,2147426459,2148011648,2147875812,2147643318,2147051062,2148255296,2147201536,410,4,13,23959
1375818931,5807,992.5499877929688000,50.6023216247558600,676.4202880859375000,4.0858750343322750,53.6681785583496100,52,99,87,79,80,15320,2147757220,2147426048,2148012169,2147876205,2147643885,2147053714,2148258907,2147200000,80,4,13,57366
1375822531,5810,993.5399780273438000,50.6668586730957000,677.6024169921875000,4.0467319488525390,53.6767311096191400,52,99,87,79,79,15317,2147759186,2147427108,2148010861,2147874340,2147643748,2147051730,2148261686,2147199890,3537,3,13,62759
1375826131,5811,1005.1300048828125000,50.9788398742675800,676.7595825195312000,4.0746421813964840,53.6217002868652340,53,99,88,78,79,15315,2147758875,2147426505,2148013540,2147874962,2147641581,2147058102,2148262646,2147197824,2970,4,13,9518
1375829731,5811,1003.1500244140625000,50.6544113159179700,675.8112182617188000,4.1060390472412110,53.6551094055175800,52,99,81,79,79,15311,2147756644,2147422829,2148013339,2147875520,2147641974,2147056009,2148259684,2147199286,290,4,13,12744
1375833331,5807,1008.7100219726562000,50.0696182250976560,674.8618164062500000,4.1374611854553220,53.7212104797363300,52,98,84,80,80,15313,2147757531,2147425563,2148012699,2147873728,2147641088,2147051675,2148259209,2147198985,3389,4,13,6994
1375836931,5812,1011.0499877929688000,49.1404685974121100,675.1113281250000000,4.1292061805725100,53.8560714721679700,52,99,85,78,78,15310,2147754651,2147424722,2148010642,2147872045,2147640539,2147051894,2148263058,2147200768,56,4,13,2867
1375840531,5806,1012.9299926757812000,49.4259910583496100,674.6744995117188000,4.1436581611633300,53.8122291564941400,52,96,86,79,79,15311,2147759094,2147426011,2148011638,2147875766,2147641005,2147053979,2148255917,2147199387,28,4,13,35902
1375844131,5807,1012.3599853515625000,50.8289718627929700,674.3129882812500000,4.1556172370910645,53.6068000793457000,53,104,87,78,79,15311,2147759670,2147426230,2148013568,2147874953,2147640109,2147056073,2148265910,2147196443,286,4,13,24380
1375847731,5806,1006.2100219726562000,50.1289405822753900,675.5209960937500000,4.1156439781188965,53.7192916870117200,52,97,83,78,79,15308,2147759808,2147425645,2148008950,2147872676,2147642258,2147050761,2148260644,2147197302,3504,4,13,53991
1375851331,5809,1014.1599731445312000,51.3596992492675800,675.2067260742188000,4.1260452270507810,53.5516700744628900,52,98,88,79,80,15308,2147758683,2147424521,2148010331,2147873453,2147642093,2147051766,2148254747,2147196845,3434,4,13,21992
1375854931,5810,1006.7000122070312000,50.1099586486816400,675.8685302734375000,4.1041412353515625,53.7290382385253900,52,96,84,78,79,15310,2147754102,2147422281,2148013193,2147874806,2147639716,2147055296,2148263917,2147197842,3582,4,13,34405
1375858531,5809,999.8900146484375000,50.1569213867187500,676.7810058593750000,4.0739350318908690,53.7333602905273440,52,99,83,78,79,15305,2147755044,2147422537,2148012178,2147872813,2147641362,2147054144,2148261952,2147195163,226,4,13,46727
1375862131,5808,1008.3099975585938000,49.8041687011718750,676.7702026367188000,4.0742912292480470,53.7856712341308600,52,97,84,78,80,15304,2147756608,2147425728,2148012306,2147875547,2147641801,2147056438,2148258724,2147198537,112,4,13,33784
1375865731,5806,1011.3099975585938000,49.7232017517089840,676.1801147460938000,4.0938282012939450,53.7874107360839840,52,98,86,78,80,15304,2147759917,2147426496,2148012598,2147872704,2147641517,2147051291,2148258596,2147202267,287,4,13,45543
1375869331,5808,1011.6599731445312000,50.6311798095703100,675.4636230468750000,4.1175460815429690,53.6515808105468750,53,96,83,76,78,15303,2147758509,2147423076,2148010624,2147876818,2147641225,2147055881,2148257334,2147199296,174,4,13,25812
1375872931,5808,1005.7999877929688000,50.1079711914062500,675.8679199218750000,4.1041641235351560,53.7271690368652340,52,99,84,79,80,15302,2147756525,2147423652,2148012873,2147872045,2147639780,2147050432,2148259108,2147202029,3596,4,13,27694
1375876531,5809,1009.6599731445312000,49.7980384826660160,676.2307739257812000,4.0921521186828610,53.7729911804199200,53,97,81,78,79,15303,2147759936,2147425892,2148010157,2147875044,2147645056,2147051794,2148257270,2147198683,359,4,13,27546
1375880131,5808,1007.1199951171875000,49.8303108215332000,676.8120727539062000,4.0729050636291500,53.7826118469238300,52,98,85,78,79,15302,2147757056,2147424612,2148010523,2147875026,2147639158,2147052964,2148255835,2147199222,23,4,13,42240
1375883731,5810,1008.1300048828125000,50.1371803283691400,676.7825927734375000,4.0738811492919920,53.7365493774414060,53,97,88,78,80,15302,2147754651,2147424137,2148013805,2147873380,2147641225,2147054656,2148261714,2147199003,26,4,13,13613
1375887331,5809,1002.0300292968750000,50.3683280944824200,676.0249023437500000,4.0989651679992680,53.6965599060058600,53,98,82,78,79,15303,2147758665,2147423570,2148012598,2147873682,2147640969,2147051584,2148265142,2147199405,3051,4,13,52271
1375890931,5808,1008.5800170898438000,49.9020309448242200,675.9578857421875000,4.1011810302734375,53.7557411193847660,52,96,84,79,80,15303,2147757705,2147426569,2148008676,2147877540,2147640338,2147051364,2148262802,2147197942,254,4,13,27697
1375894531,5810,1004.4500122070312000,49.8936195373535160,676.1857910156250000,4.0936388969421390,53.7608718872070300,52,98,83,79,79,15295,2147756626,2147425773,2148011730,2147872448,2147641197,2147057289,2148260251,2147195364,32,4,13,47327
1375898131,5809,1001.6900024414062000,50.1736106872558600,676.5830078125000000,4.0804901123046875,53.7321586608886700,52,98,82,78,80,15298,2147759204,2147426066,2148010587,2147876562,2147638985,2147053878,2148259794,2147197238,11,4,13,42827
1375901755,5809,1002.5999755859375000,50.3128700256347660,676.8986206054688000,4.0700402259826660,53.7171211242675800,52,105,89,78,80,15316,2147755858,2147425792,2148011044,2147874349,2147643328,2147050523,2148264996,2147199149,78,4,13,15524
